Hourly Data Report for October 24, 2013

All times are specified in Local Standard Time (LST). Add 1 hour to adjust for Daylight Saving Time where and when it is observed.

POND INLET A
NUNAVUT

72°41'22.000" N
77°58'08.000" W
61.60 m
2403206
71095
YIO

Download Data

Hourly Data (October 2013)
Hourly Data Report for October 24, 2013
Temp Definition
°C
Dew Point Temp Definition
°C
Rel Hum Definition
%
Wind Dir Definition
10's deg

Wind Spd Definition
km/h
Visibility Definition
km
Stn Press Definition
kPa
Hmdx Definition


Wind Chill Definition


Weather Definition


TIME
00:00 Legend Double Dagger -8.6 -11.0 83 10 13 16.1 100.56   -15 LegendNANA
01:00 Legend Double Dagger -8.2 -10.7 82 8 4 16.1 100.54   -10 LegendNANA
02:00 Legend Double Dagger -8.6 -10.9 84 13 11 16.1 100.52   -14 LegendNANA
03:00 Legend Double Dagger -8.9 -11.0 85 16 11 16.1 100.52   -14 LegendNANA
04:00 Legend Double Dagger -8.9 -10.7 87 12 8 16.1 100.49   -13 LegendNANA
05:00 Legend Double Dagger -8.8 -11.0 84 14 13 14.5 100.45   -15 LegendNANA
06:00 Legend Double Dagger -9.1 -11.8 81 12 13 16.1 100.42   -15 LegendNANA
07:00 Legend Double Dagger -9.2 -11.9 81 13 15 16.1 100.39   -16 LegendNANA
08:00 Legend Double Dagger -9.2 -11.4 84 12 13 16.1 100.37   -15 LegendNANA
09:00 Legend Double Dagger -9.4 -11.9 82 14 15 16.1 100.34   -16 LegendNANA
10:00 Legend Double Dagger -9.6 -12.4 80 14 18 16.1 100.29   -17 LegendNANA
11:00 Legend Double Dagger -9.3 -12.3 79 12 17 16.1 100.25   -16 LegendNANA
12:00 Legend Double Dagger -9.4 -12.3 80 13 15 16.1 100.23   -16 LegendNANA
13:00 Legend Double Dagger -9.4 -12.2 80 13 17 16.1 100.21   -16 LegendNANA
14:00 Legend Double Dagger -9.8 -12.3 82 13 17 14.5 100.17   -17 LegendNANA
15:00 Legend Double Dagger -9.9 -12.3 83 16 17 16.1 100.16   -17 LegendNANA
16:00 Legend Double Dagger -9.8 -12.4 81 14 17 16.1 100.11   -17 LegendNANA
17:00 Legend Double Dagger -9.8 -12.6 80 14 21 16.1 100.09   -18 LegendNANA
18:00 Legend Double Dagger -9.8 -12.6 80 14 17 16.1 100.05   -17 LegendNANA
19:00 Legend Double Dagger -10.0 -13.0 79 14 18 16.1 100.01   -17 LegendNANA
20:00 Legend Double Dagger -10.1 -12.8 81 15 17 16.1 99.95   -17 LegendNANA
21:00 Legend Double Dagger -10.0 -13.1 79 14 18 16.1 99.91   -17 LegendNANA
22:00 Legend Double Dagger -10.1 -12.9 80 15 18 16.1 99.87   -18 LegendNANA
23:00 Legend Double Dagger -10.0 -12.9 79 14 17 16.1 99.83   -17 LegendNANA

Notes on Data Quality.

Legend

  • E = Estimated
  • M = Missing
  • NA = Not Available
  • ‡ = Partner data that is not subject to review by the National Climate Archives
Date modified: